Previsão horária em Almoster

Hoje, 24 Janeiro, Domingo

Tempo Temperatura Precipitação Vento Pressão Humidade
00:00 +8°C° 0.7 mm 2 m/s 727 mmHg 93%
01:00 +7°C° 0.1 mm 5 m/s 727 mmHg 89%
02:00 +6°C° 0.1 mm 7 m/s 727 mmHg 85%
03:00 +7°C° 0.1 mm 9 m/s 726 mmHg 81%
04:00 +6°C° 0 mm 11 m/s 727 mmHg 81%
05:00 +5°C° 0 mm 13 m/s 728 mmHg 80%
06:00 +4°C° 0 mm 14 m/s 728 mmHg 80%
07:00 +5°C° 0 mm 13 m/s 729 mmHg 75%
08:00 +5°C° 0 mm 12 m/s 730 mmHg 71%
09:00 +6°C° 0 mm 10 m/s 732 mmHg 67%
10:00 +7°C° 0 mm 11 m/s 732 mmHg 62%
11:00 +8°C° 0 mm 11 m/s 732 mmHg 58%
12:00 +8°C° 0 mm 11 m/s 733 mmHg 53%
13:00 +9°C° 0 mm 11 m/s 733 mmHg 53%
14:00 +9°C° 0 mm 11 m/s 733 mmHg 53%
15:00 +9°C° 0 mm 11 m/s 733 mmHg 54%
16:00 +8°C° 0 mm 10 m/s 733 mmHg 56%
17:00 +7°C° 0 mm 10 m/s 734 mmHg 58%
18:00 +6°C° 0 mm 9 m/s 734 mmHg 61%
19:00 +6°C° 0 mm 9 m/s 734 mmHg 62%
20:00 +6°C° 0 mm 9 m/s 735 mmHg 63%
21:00 +5°C° 0 mm 9 m/s 735 mmHg 64%
22:00 +5°C° 0 mm 9 m/s 735 mmHg 67%
23:00 +5°C° 0 mm 8 m/s 736 mmHg 69%

Amanhã, 25 Janeiro, Segunda-feira

Tempo Temperatura Precipitação Vento Pressão Humidade
00:00 +4°C° 0 mm 8 m/s 736 mmHg 71%
01:00 +4°C° 0 mm 8 m/s 736 mmHg 74%
02:00 +4°C° 0 mm 7 m/s 736 mmHg 76%
03:00 +3°C° 0 mm 7 m/s 737 mmHg 79%
04:00 +3°C° 0 mm 6 m/s 737 mmHg 81%
05:00 +3°C° 0 mm 6 m/s 737 mmHg 82%
06:00 +2°C° 0 mm 5 m/s 737 mmHg 84%
07:00 +3°C° 0 mm 5 m/s 738 mmHg 81%
08:00 +4°C° 0 mm 4 m/s 739 mmHg 78%
09:00 +5°C° 0 mm 4 m/s 739 mmHg 75%
10:00 +6°C° 0 mm 4 m/s 740 mmHg 71%
11:00 +7°C° 0 mm 4 m/s 740 mmHg 66%
12:00 +9°C° 0 mm 3 m/s 740 mmHg 62%
13:00 +8°C° 0 mm 4 m/s 740 mmHg 61%
14:00 +8°C° 0 mm 4 m/s 740 mmHg 60%
15:00 +8°C° 0 mm 4 m/s 740 mmHg 59%
16:00 +9°C° 0 mm 3 m/s 740 mmHg 64%
17:00 +8°C° 0 mm 3 m/s 741 mmHg 69%
18:00 +7°C° 0 mm 3 m/s 741 mmHg 74%
19:00 +7°C° 0 mm 2 m/s 741 mmHg 77%
20:00 +6°C° 0 mm 2 m/s 742 mmHg 80%
21:00 +7°C° 0 mm 1 m/s 742 mmHg 84%
22:00 +6°C° 0 mm 1 m/s 742 mmHg 84%
23:00 +6°C° 0 mm 1 m/s 742 mmHg 84%

Depois de amanhã, 26 Janeiro, Terça-feira

Tempo Temperatura Precipitação Vento Pressão Humidade
00:00 +6°C° 0 mm 1 m/s 742 mmHg 84%
01:00 +6°C° 0 mm 1 m/s 742 mmHg 83%
02:00 +6°C° 0 mm 1 m/s 742 mmHg 83%
03:00 +5°C° 0 mm 1 m/s 742 mmHg 83%
04:00 +5°C° 0 mm 1 m/s 742 mmHg 83%
05:00 +5°C° 0 mm 1 m/s 742 mmHg 83%
06:00 +5°C° 0 mm 1 m/s 742 mmHg 83%
07:00 +6°C° 0 mm 1 m/s 742 mmHg 79%
08:00 +7°C° 0 mm 1 m/s 743 mmHg 76%
09:00 +8°C° 0 mm 1 m/s 743 mmHg 73%
10:00 +9°C° 0 mm 1 m/s 743 mmHg 69%
11:00 +10°C° 0 mm 1 m/s 743 mmHg 65%
12:00 +11°C° 0 mm 1 m/s 742 mmHg 61%
13:00 +11°C° 0 mm 1 m/s 742 mmHg 63%
14:00 +10°C° 0 mm 2 m/s 742 mmHg 66%
15:00 +10°C° 0 mm 2 m/s 741 mmHg 68%
16:00 +9°C° 0 mm 2 m/s 742 mmHg 72%
17:00 +9°C° 0 mm 2 m/s 742 mmHg 75%
18:00 +8°C° 0 mm 2 m/s 742 mmHg 79%
19:00 +8°C° 0 mm 2 m/s 742 mmHg 80%
20:00 +7°C° 0 mm 2 m/s 742 mmHg 81%
21:00 +7°C° 0 mm 3 m/s 742 mmHg 82%
22:00 +7°C° 0 mm 3 m/s 742 mmHg 85%
23:00 +7°C° 0 mm 3 m/s 742 mmHg 87%

27 Janeiro, Quarta-feira

Tempo Temperatura Precipitação Vento Pressão Humidade
00:00 +5°C° 0 mm 3 m/s 743 mmHg 90%
01:00 +5°C° 0 mm 3 m/s 743 mmHg 90%
02:00 +7°C° 0 mm 3 m/s 743 mmHg 91%
03:00 +7°C° 0 mm 3 m/s 743 mmHg 92%
04:00 +7°C° 0 mm 3 m/s 743 mmHg 92%
05:00 +7°C° 0 mm 2 m/s 743 mmHg 92%
06:00 +7°C° 0 mm 2 m/s 743 mmHg 92%
07:00 +7°C° 0 mm 2 m/s 743 mmHg 90%
08:00 +8°C° 0 mm 2 m/s 744 mmHg 87%
09:00 +9°C° 0 mm 2 m/s 744 mmHg 85%
10:00 +10°C° 0 mm 2 m/s 744 mmHg 80%
11:00 +12°C° 0 mm 2 m/s 744 mmHg 75%
12:00 +13°C° 0 mm 2 m/s 744 mmHg 71%
13:00 +14°C° 0 mm 2 m/s 743 mmHg 70%
14:00 +14°C° 0 mm 2 m/s 743 mmHg 69%
15:00 +14°C° 0 mm 2 m/s 743 mmHg 68%
16:00 +13°C° 0 mm 2 m/s 743 mmHg 73%
17:00 +12°C° 0 mm 2 m/s 743 mmHg 77%
18:00 +11°C° 0 mm 1 m/s 743 mmHg 81%
19:00 +11°C° 0 mm 1 m/s 744 mmHg 82%
20:00 +10°C° 0 mm 1 m/s 744 mmHg 83%
21:00 +10°C° 0 mm 1 m/s 744 mmHg 84%
22:00 +10°C° 0 mm 1 m/s 744 mmHg 85%
23:00 +10°C° 0 mm 1 m/s 744 mmHg 85%

28 Janeiro, Quinta-feira

Tempo Temperatura Precipitação Vento Pressão Humidade
00:00 +10°C° 0 mm 1 m/s 744 mmHg 86%
01:00 +10°C° 0 mm 1 m/s 744 mmHg 86%
02:00 +8°C° 0 mm 2 m/s 743 mmHg 87%
03:00 +8°C° 0 mm 2 m/s 743 mmHg 87%
04:00 +8°C° 0 mm 2 m/s 743 mmHg 87%
05:00 +8°C° 0 mm 2 m/s 743 mmHg 87%
06:00 +8°C° 0 mm 2 m/s 743 mmHg 87%
07:00 +9°C° 0 mm 2 m/s 744 mmHg 84%
08:00 +10°C° 0 mm 2 m/s 744 mmHg 82%
09:00 +12°C° 0 mm 2 m/s 744 mmHg 79%
10:00 +13°C° 0 mm 3 m/s 744 mmHg 74%
11:00 +14°C° 0 mm 3 m/s 744 mmHg 69%
12:00 +16°C° 0 mm 3 m/s 744 mmHg 64%
13:00 +17°C° 0 mm 3 m/s 744 mmHg 64%
14:00 +17°C° 0 mm 4 m/s 744 mmHg 65%
15:00 +17°C° 0 mm 4 m/s 743 mmHg 65%
16:00 +16°C° 0 mm 3 m/s 743 mmHg 70%
17:00 +14°C° 0 mm 3 m/s 744 mmHg 74%
18:00 +12°C° 0 mm 3 m/s 744 mmHg 79%

29 Janeiro, Sexta-feira

Tempo Temperatura Precipitação Vento Pressão Humidade
Mostrar mais

Necessitamos do seu Consentimento

A Meteoprog e os seus Fornecedores de Serviços podem armazenar e aceder a dados pessoais como cookies, identificadores do dispositivo ou outras tecnologias semelhantes existentes no seu dispositivo e processar estes dados para personalizar conteúdos e anúncios, assim como funcionalidades nas redes sociais e análise de tráfego.

  • Armazenar e/ou aceder a informações no seu dispositivo

    Os cookies, identificadores do dispositivo ou outras informações podem ser armazenados ou acedidos no seu dispositivo, para os fins acima indicados.

  • Anúncios e conteúdos personalizados, medição de anúncios e conteúdos, dados sobre o público-alvo e desenvolvimento de produtos

    Os anúncios e os conteúdos podem ser personalizados com base num perfil. Podem ser adicionados dados adicionais para uma maior personalização dos anúncios e dos conteúdos. A eficácia dos anúncios e dos conteúdos pode ser medida. Podem ser obtidas informações sobre o público que visualizou os anúncios e os conteúdos. Estes dados podem ser usados para desenvolver ou melhorar sistemas, softwares ou a experiência do utilizador.

Ao clicar em "Eu concordo”, permitirá o uso de cookies, identificadores do dispositivo e web beacons mencionados ou outras tecnologias semelhantes. As configurações do navegador do seu dispositivo podem ser alteradas.

Para certos fins, podem ser invocados interesses legítimos ao invés de consentimento. Pode ler mais informação sobre este assunto na nossa Política de Privacidade e Cookies.